Вернуться в каталог

MSG 1 DEB

COOLER COVER

АктивенGEO
NORAD 39998·DEBRIS·🇪🇺 EU

Запущен Aug 28, 2002 с Guiana Space Centre

Loading…

TLE

СвежийSource: Space-Track

Эпоха: Sep 14, 2026, 13:25 UTC

1 39998U 02040E   26257.55948005 -.00000009  00000-0  00000-0 0  9992
2 39998  12.5082  14.3026 0009594 204.1883 192.0269  1.01194709 18748

Отслеживайте MSG 1 DEB в реальном времени с AllMySat

Download on the App Store